Terug naar catalogus

STARLINK-4593

ActiefCommunicatieVLEO
NORAD 53633·PAYLOAD·🇺🇸 United States

Gelanceerd Aug 28, 2022 vanaf Cape Canaveral Space Force Station

Loading…

Volgende Passages (komende 24 uur)

TLE

VersSource: CelesTrak SupGP

Epoch: Sep 14, 2026, 21:31 UTC

1 53633C 22104AX  26257.89701389  .00013166  00000+0  38917-3 0  2570
2 53633  53.1591  87.7245 0001279  81.6864 156.5269 15.34370917    16

Volg STARLINK-4593 in realtime met AllMySat

Download on the App Store